{"data":{"norad_id":45143,"epoch":"2026-09-20T01:28:40.945728Z","epoch_age_seconds":52326,"freshness":"FRESH","line1":"1 45143U 20008N   26263.06158502  .00000016  00000+0  92698-5 0  9998","line2":"2 45143  87.8909  17.3815 0001721  97.7207 262.4115 13.10377054320364","mean_motion":13.10377054,"eccentricity":0.0001721,"inclination_deg":87.8909,"raan_deg":17.3815,"arg_perigee_deg":97.7207,"mean_anomaly_deg":262.4115,"bstar":9.2698e-6,"rev_number":32036,"period_min":109.89203417477,"perigee_km":1220.3928363393,"apogee_km":1223.0087004991,"semimajor_km":7599.8377684192,"source":"CELESTRAK","updated_at":"2026-09-20T09:00:44.547180Z"}}